Vorticity
nan nan nan nan nan nan nan nan nan nan nan nan nan nan nan nan nan nan nan nan nan nan nan nan nan nan nan nan nan nan nan nan nan nan nan nan nan nan nan nan nan nan nan
nan 8 7 8 8 9 10 10 11 11 12 13 12 10 11 10 8 6 6 6 6 10 12 12 10 10 9 9 9 9 10 9 9 8 8 10 9 10 11 11 11 10 nan
nan 9 9 8 9 9 9 10 10 10 10 12 13 14 13 11 8 8 6 6 9 11 11 8 10 9 10 10 10 9 9 10 9 9 8 9 10 11 11 9 10 10 nan
nan 9 9 8 8 9 9 9 9 9 9 9 10 10 13 15 15 13 10 9 10 10 11 9 9 8 8 8 10 9 9 10 10 8 8 9 10 9 10 10 10 11 nan
nan 8 8 8 9 8 7 8 9 9 9 8 8 9 10 12 11 12 13 12 11 12 11 10 12 11 9 8 7 10 10 9 9 10 8 8 8 10 10 10 10 9 nan
nan 8 8 8 6 6 7 8 9 8 9 9 9 9 9 7 3 8 11 12 10 10 10 12 10 11 14 14 11 10 9 8 7 9 10 10 9 8 10 8 8 9 nan
nan 10 9 8 8 8 7 8 8 9 9 8 8 8 9 9 8 6 8 11 10 9 9 8 9 10 10 12 15 13 10 11 9 9 10 8 11 10 8 10 10 8 nan
nan 10 13 10 11 10 8 6 8 9 9 10 9 9 10 9 7 8 14 14 11 10 10 9 9 8 10 11 12 12 11 12 11 9 8 7 7 8 9 10 11 9 nan
nan 11 11 13 10 7 7 9 10 10 10 10 9 9 9 8 8 10 14 14 12 12 12 11 10 9 10 9 9 9 9 10 13 12 10 10 11 12 10 9 11 9 nan
nan 10 8 8 9 10 10 12 11 9 9 8 10 11 10 8 7 8 13 15 12 12 12 14 14 10 9 10 9 11 10 11 10 11 13 14 12 14 15 8 8 8 nan
nan 12 11 11 11 12 12 11 8 9 11 10 11 9 11 10 9 10 9 11 11 11 10 12 15 15 11 12 12 8 10 10 9 8 9 10 11 13 14 13 9 8 nan
nan 10 9 10 11 12 13 11 11 12 11 10 9 10 10 10 11 8 10 10 9 11 10 9 7 14 18 13 7 6 8 7 9 11 10 10 10 11 11 12 11 8 nan
nan 9 10 10 10 10 10 11 12 13 12 10 10 10 10 11 10 11 11 12 14 12 11 9 11 14 14 12 10 11 9 8 9 9 9 9 10 9 9 12 13 12 nan
nan 9 9 9 10 11 11 11 10 10 10 10 10 10 10 10 10 11 11 11 10 11 11 12 14 17 14 8 13 14 11 11 9 8 8 8 8 9 11 10 11 13 nan
nan 11 11 11 10 11 12 10 9 9 6 6 8 9 10 9 7 7 6 6 8 10 13 14 12 12 10 12 11 11 11 10 10 10 10 9 9 9 11 11 10 11 nan
nan 10 11 11 11 11 10 11 13 10 7 10 14 10 9 7 4 6 7 11 13 16 12 9 10 11 10 10 10 12 11 11 11 11 10 10 10 9 11 11 10 10 nan
nan 9 11 10 10 10 11 10 11 16 14 12 12 14 12 6 8 11 14 18 21 14 9 10 10 10 11 13 13 12 11 12 12 11 10 11 10 10 10 11 11 10 nan
nan 12 12 11 10 11 11 11 11 9 12 14 13 12 10 12 14 15 22 19 15 9 8 10 9 10 11 11 11 11 11 11 12 11 11 11 11 11 10 11 11 10 nan
nan 13 12 13 12 12 13 12 11 11 11 11 13 12 12 11 12 19 19 11 9 9 11 11 10 10 9 9 10 10 10 10 11 11 12 11 10 11 11 10 12 12 nan
nan 7 17 15 11 12 12 12 12 12 12 12 11 10 8 12 13 14 11 13 12 10 10 10 11 12 11 11 11 11 11 11 10 11 11 11 11 11 11 11 12 12 nan
nan 6 9 14 11 11 11 12 12 11 11 11 11 8 10 16 14 12 11 12 12 11 13 12 11 12 14 13 12 11 11 12 12 11 11 11 11 10 11 11 11 13 nan
nan 11 10 10 10 10 11 11 12 12 11 11 11 8 14 16 13 12 12 11 10 10 11 12 14 10 12 18 16 13 12 11 10 11 11 11 11 11 12 12 11 12 nan
nan 11 10 9 8 9 13 12 10 10 10 11 11 11 12 11 11 10 11 12 13 12 11 10 10 11 10 10 11 12 13 14 16 16 13 12 12 11 11 12 12 12 nan
nan 9 10 10 10 9 8 10 12 12 12 11 11 12 11 11 11 11 12 12 12 12 12 12 8 8 9 9 9 7 6 8 10 7 12 19 16 11 11 11 13 11 nan
nan 8 9 9 9 9 9 9 11 12 12 12 12 12 11 12 12 12 13 13 13 12 11 13 10 8 6 8 8 9 10 9 8 9 13 12 10 14 16 14 10 12 nan
nan nan nan nan nan nan nan nan nan nan nan nan nan nan nan nan nan nan nan nan nan nan nan nan nan nan nan nan nan nan nan nan nan nan nan nan nan nan nan nan nan nan nan
CAPE
3 0 0 0 0 0 0 0 0 0 0 2 19 0 2 1 28 69 31 78 214 270 385 563 611 526 622 374 337 357 276 188 269 691 210 515 391 472 348 356 499 631 559
145 31 0 0 0 0 0 0 0 0 0 6 27 123 112 221 104 15 10 49 128 228 384 622 574 564 251 274 291 449 308 217 343 483 421 568 483 389 366 321 126 202 1001
190 114 88 30 9 52 114 175 229 242 209 277 269 248 138 278 118 81 48 77 126 233 218 318 235 282 477 354 203 125 380 509 294 211 325 335 589 491 636 639 738 796 785
520 451 221 232 284 274 52 0 0 0 21 0 4 122 278 182 273 214 242 282 187 289 275 104 81 227 346 655 366 122 281 480 376 218 387 443 512 613 740 899 694 655 649
229 183 257 363 265 9 0 0 0 0 0 0 0 0 0 192 558 179 168 240 279 207 186 207 465 412 167 213 627 302 233 129 310 343 582 458 380 545 573 299 443 165 429
72 95 61 0 0 1 8 7 6 5 7 0 0 0 0 4 20 0 19 227 413 452 418 331 390 295 334 283 174 204 342 415 293 127 234 398 498 367 314 441 514 439 624
0 7 15 0 13 14 32 26 21 16 1 0 0 0 0 0 0 0 0 0 75 208 322 318 309 487 508 913 393 113 72 91 112 443 267 438 171 91 213 278 218 394 589
0 1 1 27 44 53 40 18 3 0 0 0 0 0 0 0 0 0 0 0 0 7 57 115 192 200 223 458 655 622 472 179 143 159 93 133 224 126 368 488 421 206 78
1 101 28 65 36 39 6 0 0 0 0 0 0 0 0 0 0 0 0 0 0 0 1 9 28 53 32 50 125 202 207 251 171 57 70 153 83 23 59 95 119 28 74
139 49 57 2 0 0 0 0 0 0 0 0 0 0 0 0 0 0 0 0 0 0 3 11 0 0 0 0 19 96 161 167 36 76 165 79 13 7 1 94 228 11 71
26 15 10 0 0 0 0 0 0 0 0 0 0 0 0 0 0 0 0 0 0 0 0 0 0 0 0 0 0 24 20 0 0 0 0 0 0 45 114 47 233 301 179
0 0 0 0 0 0 0 0 0 0 0 0 0 0 0 0 0 0 0 0 0 0 0 0 0 0 2 1 1 0 0 1 1 2 1 0 0 0 6 5 23 162 491
0 0 0 0 0 0 0 0 0 0 0 0 0 0 0 0 0 0 0 0 0 0 0 0 0 0 1 0 1 1 0 1 0 0 1 0 0 0 3 8 26 46 7
0 0 0 0 0 0 0 0 0 0 0 0 0 1 0 0 0 0 0 0 0 0 0 0 0 0 1 0 1 1 2 0 0 3 2 1 3 7 6 21 14 7 1
0 0 0 0 0 0 0 0 3 3 5 15 6 3 3 1 0 0 0 0 0 0 0 0 0 0 0 2 5 4 3 3 3 1 4 2 4 3 3 1 8 11 8
0 0 0 0 0 1 2 0 0 0 0 0 0 0 0 0 0 0 0 0 0 0 0 0 0 0 0 0 0 0 0 0 1 15 19 6 6 6 4 4 46 57 14
0 0 0 0 2 1 0 1 6 1 1 2 2 3 0 0 0 0 0 0 0 0 0 0 0 0 0 0 0 0 0 0 0 3 9 9 9 6 6 4 4 115 112
0 0 3 2 0 1 5 9 5 4 4 2 0 2 0 0 0 0 0 0 0 0 0 0 0 1 0 0 0 0 0 0 2 2 3 4 9 5 7 7 1 91 223
0 1 3 4 3 3 4 5 6 7 6 6 7 2 4 1 0 0 1 0 5 5 2 1 1 3 8 2 1 0 0 0 0 4 7 10 5 6 6 4 4 9 66
0 0 2 3 1 1 3 6 6 7 10 9 10 9 10 9 9 6 0 1 27 17 9 11 11 28 53 45 16 12 6 6 3 3 8 14 9 9 6 5 7 253 335
0 0 1 1 3 4 5 8 10 8 9 9 9 9 0 2 6 12 25 23 18 15 15 40 65 40 7 22 84 44 3 0 9 10 9 9 9 32 7 6 13 357 544
0 0 0 1 2 2 4 1 3 10 6 6 5 4 1 9 9 8 7 9 11 16 5 5 3 6 33 46 50 74 60 38 28 22 6 3 1 3 10 6 35 44 136
0 0 0 0 0 0 1 0 0 3 6 7 7 7 7 6 7 9 12 12 12 11 10 14 7 5 14 3 3 6 11 7 34 38 35 32 28 10 6 11 29 161 172
0 0 0 0 0 0 0 2 3 1 5 8 8 9 7 7 8 10 10 10 13 14 10 10 14 15 5 4 7 12 15 3 4 4 6 21 32 16 12 270 257 237 153
0 0 0 0 0 0 0 0 2 5 6 8 8 8 8 9 9 9 9 9 7 9 8 8 9 5 6 7 6 5 2 0 0 0 2 6 6 9 30 22 385 239 202
0 0 0 0 0 0 0 0 1 5 4 3 5 7 7 8 8 9 8 7 6 6 7 7 7 4 4 4 2 0 0 1 0 1 2 5 3 5 11 14 161 357 334